| time (UTC) | temp F | wind direction | speed knots | gust knots | rain 1hr in | rain 24hr in | rain mn in | humidity % | barometer mb |
| 20260906223812 | 98 | 91 | 2.6 | 8.7 | 0.00 | 0.01 | 0.01 | 40 | 1009.0 |
| 20260906222817 | 98 | 151 | 3.5 | 10.4 | 0.00 | 0.01 | 0.01 | 40 | 1009.0 |
| 20260906221813 | 98 | 140 | 2.6 | 8.7 | 0.00 | 0.01 | 0.01 | 40 | 1009.1 |
| 20260906220812 | 97 | 132 | 1.7 | 7.0 | 0.00 | 0.01 | 0.01 | 41 | 1009.2 |
| 20260906215813 | 98 | 89 | 3.5 | 9.6 | 0.00 | 0.01 | 0.01 | 40 | 1009.3 |
| 20260906214814 | 98 | 80 | 1.7 | 7.0 | 0.00 | 0.01 | 0.01 | 41 | 1009.3 |
| 20260906213814 | 97 | 146 | 2.6 | 10.4 | 0.00 | 0.01 | 0.01 | 42 | 1009.5 |
| 20260906212814 | 97 | 71 | 4.3 | 11.3 | 0.00 | 0.01 | 0.01 | 41 | 1009.6 |
| 20260906211814 | 98 | 94 | 4.3 | 11.3 | 0.00 | 0.01 | 0.01 | 42 | 1009.6 |
| 20260906210812 | 96 | 102 | 4.3 | 12.2 | 0.00 | 0.01 | 0.01 | 42 | 1009.8 |
| 20260906205814 | 96 | 71 | 4.3 | 11.3 | 0.00 | 0.01 | 0.01 | 44 | 1009.9 |
| 20260906205253 | 97 | 68 | 3.5 | 12.2 | 0.00 | 0.01 | 0.01 | 42 | 1010.1 |
| 20260906203812 | 97 | 55 | 3.5 | 8.7 | 0.00 | 0.01 | 0.01 | 44 | 1010.2 |
| 20260906202812 | 98 | 116 | 1.7 | 7.0 | 0.00 | 0.01 | 0.01 | 42 | 1010.3 |
| 20260906201815 | 98 | 103 | 2.6 | 7.8 | 0.00 | 0.01 | 0.01 | 42 | 1010.3 |
| 20260906200813 | 97 | 134 | 4.3 | 13.0 | 0.00 | 0.01 | 0.01 | 42 | 1010.4 |
| 20260906195812 | 97 | 82 | 3.5 | 8.7 | 0.00 | 0.01 | 0.01 | 45 | 1010.4 |
| 20260906194813 | 96 | 54 | 2.6 | 7.0 | 0.00 | 0.01 | 0.01 | 47 | 1010.5 |
| 20260906193814 | 96 | 31 | 3.5 | 10.4 | 0.00 | 0.01 | 0.01 | 46 | 1010.6 |
| 20260906192810 | 96 | 91 | 2.6 | 10.4 | 0.01 | 0.01 | 0.01 | 47 | 1010.7 |
| 20260906191810 | 95 | 74 | 4.3 | 12.2 | 0.01 | 0.01 | 0.01 | 48 | 1011.1 |
| 20260906190814 | 95 | 64 | 4.3 | 11.3 | 0.01 | 0.01 | 0.01 | 48 | 1010.9 |
| 20260906185810 | 95 | 134 | 4.3 | 11.3 | 0.01 | 0.01 | 0.01 | 45 | 1011.1 |
| 20260906184812 | 93 | 87 | 4.3 | 9.6 | 0.01 | 0.01 | 0.01 | 50 | 1011.1 |
| 20260906183808 | 93 | 73 | 3.5 | 9.6 | 0.01 | 0.01 | 0.01 | 52 | 1011.3 |
| 20260906182808 | 94 | 73 | 3.5 | 11.3 | 0.00 | 0.00 | 0.00 | 48 | 1011.5 |
| 20260906181810 | 94 | 79 | 3.5 | 10.4 | 0.00 | 0.00 | 0.00 | 49 | 1011.6 |
| 20260906180805 | 94 | 155 | 2.6 | 7.0 | 0.00 | 0.00 | 0.00 | 47 | 1011.8 |
| 20260906175807 | 93 | 148 | 2.6 | 7.0 | 0.00 | 0.00 | 0.00 | 47 | 1011.9 |
| 20260906175252 | 93 | 107 | 2.6 | 7.8 | 0.00 | 0.00 | 0.00 | 51 | 1012.2 |
| 20260906173800 | 93 | 81 | 3.5 | 9.6 | 0.00 | 0.00 | 0.00 | 50 | 1012.2 |
| 20260906172758 | 92 | 109 | 3.5 | 12.2 | 0.00 | 0.00 | 0.00 | 54 | 1012.4 |
| 20260906171800 | 92 | 94 | 4.3 | 9.6 | 0.00 | 0.00 | 0.00 | 51 | 1012.5 |
| 20260906170756 | 93 | 108 | 3.5 | 7.8 | 0.00 | 0.00 | 0.00 | 51 | 1012.6 |
| 20260906165758 | 93 | 95 | 1.7 | 9.6 | 0.00 | 0.00 | 0.00 | 52 | 1012.6 |
| 20260906164758 | 92 | 63 | 1.7 | 6.1 | 0.00 | 0.00 | 0.00 | 55 | 1012.8 |
| 20260906163749 | 92 | 85 | 2.6 | 7.0 | 0.00 | 0.00 | 0.00 | 54 | 1012.9 |
| 20260906162746 | 91 | 139 | 2.6 | 6.1 | 0.00 | 0.00 | 0.00 | 55 | 1012.9 |
| 20260906162227 | 91 | 86 | 2.6 | 6.1 | 0.00 | 0.00 | 0.00 | 55 | 1012.9 |
| 20260906160745 | 90 | 79 | 2.6 | 7.0 | 0.00 | 0.00 | 0.00 | 57 | 1012.9 |
| 20260906155746 | 90 | 53 | 2.6 | 7.0 | 0.00 | 0.00 | 0.00 | 58 | 1012.9 |
| 20260906154746 | 90 | 165 | 1.7 | 4.3 | 0.00 | 0.00 | 0.00 | 59 | 1012.9 |
| 20260906154709 | 89 | 105 | 0.9 | 3.5 | 0.00 | 0.00 | 0.00 | 60 | 1012.9 |
| 20260906152744 | 89 | 90 | 1.7 | 6.1 | 0.00 | 0.00 | 0.00 | 60 | 1012.8 |
| 20260906151743 | 89 | 158 | 1.7 | 4.3 | 0.00 | 0.00 | 0.00 | 61 | 1012.7 |
| 20260906150738 | 89 | 158 | 0.9 | 4.3 | 0.00 | 0.00 | 0.00 | 62 | 1012.6 |
| 20260906145746 | 88 | 172 | 0.9 | 4.3 | 0.00 | 0.00 | 0.00 | 62 | 1012.5 |
| 20260906144736 | 87 | 110 | 0.9 | 2.6 | 0.00 | 0.00 | 0.00 | 63 | 1012.5 |
| 20260906144226 | 87 | 82 | 1.7 | 5.2 | 0.00 | 0.00 | 0.00 | 65 | 1012.5 |
| 20260906142736 | 86 | 88 | 0.9 | 5.2 | 0.00 | 0.00 | 0.00 | 65 | 1012.4 |
| 20260906141737 | 85 | 103 | 0.9 | 2.6 | 0.00 | 0.00 | 0.00 | 67 | 1012.6 |
| 20260906140741 | 85 | 90 | 0.9 | 3.5 | 0.00 | 0.00 | 0.00 | 69 | 1012.5 |
| 20260906135737 | 84 | 76 | 1.7 | 3.5 | 0.00 | 0.00 | 0.00 | 69 | 1012.5 |
| 20260906134738 | 84 | 86 | 0.9 | 3.5 | 0.00 | 0.00 | 0.00 | 70 | 1012.4 |
| 20260906133736 | 84 | 81 | 0.9 | 3.5 | 0.00 | 0.00 | 0.00 | 71 | 1012.4 |
| 20260906133217 | 83 | 81 | 0.9 | 5.2 | 0.00 | 0.00 | 0.00 | 73 | 1012.5 |
| 20260906131735 | 82 | 94 | 1.7 | 4.3 | 0.00 | 0.00 | 0.00 | 74 | 1012.4 |
| 20260906131209 | 81 | 84 | 0.9 | 3.5 | 0.00 | 0.00 | 0.00 | 76 | 1012.4 |
| 20260906130657 | 80 | 79 | 1.7 | 3.5 | 0.00 | 0.00 | 0.00 | 77 | 1012.4 |
| 20260906124732 | 79 | 142 | 0.0 | 1.7 | 0.00 | 0.00 | 0.00 | 79 | 1012.3 |
| 20260906123730 | 78 | 162 | 0.0 | 0.0 | 0.00 | 0.00 | 0.00 | 77 | 1012.3 |
| 20260906122732 | 78 | 162 | 0.0 | 0.0 | 0.00 | 0.00 | 0.00 | 77 | 1012.1 |
| 20260906122208 | 78 | 162 | 0.0 | 0.9 | 0.00 | 0.00 | 0.00 | 77 | 1012.0 |
| 20260906120732 | 78 | 162 | 0.0 | 0.9 | 0.00 | 0.00 | 0.00 | 77 | 1011.9 |
| 20260906115726 | 78 | 162 | 0.0 | 1.7 | 0.00 | 0.00 | 0.00 | 77 | 1011.8 |
| 20260906114729 | 78 | 162 | 0.0 | 0.0 | 0.00 | 0.00 | 0.00 | 76 | 1011.7 |
| 20260906113727 | 78 | 162 | 0.0 | 0.9 | 0.00 | 0.00 | 0.00 | 76 | 1011.6 |
| 20260906112726 | 79 | 162 | 0.0 | 0.9 | 0.00 | 0.00 | 0.00 | 75 | 1011.6 |
| 20260906112158 | 79 | 162 | 0.0 | 0.9 | 0.00 | 0.00 | 0.00 | 75 | 1011.4 |
| 20260906110726 | 79 | 162 | 0.0 | 0.0 | 0.00 | 0.00 | 0.00 | 75 | 1011.3 |
| 20260906110215 | 79 | 162 | 0.0 | 0.0 | 0.00 | 0.00 | 0.00 | 75 | 1011.2 |
| 20260906104726 | 79 | 162 | 0.0 | 0.0 | 0.00 | 0.00 | 0.00 | 75 | 1011.1 |
| 20260906103727 | 79 | 162 | 0.0 | 0.0 | 0.00 | 0.00 | 0.00 | 74 | 1011.3 |
| 20260906102728 | 80 | 162 | 0.0 | 0.9 | 0.00 | 0.00 | 0.00 | 74 | 1011.3 |
| 20260906101726 | 80 | 162 | 0.0 | 0.0 | 0.00 | 0.00 | 0.00 | 73 | 1011.2 |
| 20260906100726 | 80 | 162 | 0.0 | 1.7 | 0.00 | 0.00 | 0.00 | 73 | 1011.1 |
| 20260906100211 | 80 | 162 | 0.0 | 1.7 | 0.00 | 0.00 | 0.00 | 73 | 1010.8 |
| 20260906094726 | 80 | 162 | 0.9 | 3.5 | 0.00 | 0.00 | 0.00 | 73 | 1010.8 |
| 20260906093726 | 81 | 175 | 0.9 | 3.5 | 0.00 | 0.00 | 0.00 | 73 | 1010.8 |
| 20260906092725 | 81 | 168 | 0.9 | 4.3 | 0.00 | 0.00 | 0.00 | 72 | 1010.5 |
| 20260906091726 | 81 | 162 | 1.7 | 3.5 | 0.00 | 0.00 | 0.00 | 72 | 1010.6 |
| 20260906090720 | 81 | 158 | 1.7 | 4.3 | 0.00 | 0.00 | 0.00 | 72 | 1010.5 |
| 20260906085719 | 81 | 155 | 1.7 | 4.3 | 0.00 | 0.00 | 0.00 | 72 | 1010.5 |
| 20260906085201 | 82 | 157 | 2.6 | 7.0 | 0.00 | 0.00 | 0.00 | 72 | 1010.4 |
| 20260906083718 | 82 | 192 | 2.6 | 6.1 | 0.00 | 0.00 | 0.00 | 72 | 1010.3 |
| 20260906082718 | 82 | 185 | 4.3 | 8.7 | 0.00 | 0.00 | 0.00 | 72 | 1010.3 |
| 20260906081718 | 82 | 190 | 2.6 | 5.2 | 0.00 | 0.00 | 0.00 | 72 | 1010.3 |
| 20260906080718 | 82 | 178 | 1.7 | 4.3 | 0.00 | 0.00 | 0.00 | 71 | 1010.4 |
| 20260906075716 | 82 | 171 | 1.7 | 3.5 | 0.00 | 0.00 | 0.00 | 71 | 1010.7 |
| 20260906074717 | 82 | 169 | 0.9 | 4.3 | 0.00 | 0.00 | 0.00 | 70 | 1010.8 |
| 20260906073718 | 82 | 143 | 0.9 | 2.6 | 0.00 | 0.00 | 0.00 | 70 | 1010.9 |
| 20260906072718 | 83 | 163 | 0.9 | 3.5 | 0.00 | 0.00 | 0.00 | 69 | 1010.9 |
| 20260906071720 | 83 | 153 | 0.9 | 3.5 | 0.00 | 0.00 | 0.00 | 69 | 1010.7 |
| 20260906070720 | 83 | 162 | 1.7 | 3.5 | 0.00 | 0.00 | 0.00 | 69 | 1010.6 |
| 20260906065717 | 83 | 183 | 1.7 | 5.2 | 0.00 | 0.00 | 0.00 | 69 | 1010.7 |
| 20260906064717 | 83 | 145 | 0.9 | 2.6 | 0.00 | 0.00 | 0.00 | 69 | 1010.9 |
| 20260906064157 | 83 | 190 | 1.7 | 2.6 | 0.00 | 0.00 | 0.00 | 68 | 1011.1 |
| 20260906062716 | 84 | 190 | 3.5 | 4.3 | 0.00 | 0.00 | 0.00 | 68 | 1011.1 |
| 20260906061718 | 84 | 185 | 2.6 | 5.2 | 0.00 | 0.00 | 0.00 | 67 | 1010.9 |
| 20260906060718 | 84 | 177 | 1.7 | 6.1 | 0.00 | 0.00 | 0.00 | 67 | 1011.2 |
| 20260906055717 | 84 | 180 | 1.7 | 3.5 | 0.00 | 0.00 | 0.00 | 66 | 1011.2 |
| 20260906054717 | 85 | 180 | 2.6 | 5.2 | 0.00 | 0.00 | 0.00 | 65 | 1011.2 |
| 20260906053718 | 85 | 142 | 1.7 | 5.2 | 0.00 | 0.00 | 0.00 | 65 | 1011.1 |
| 20260906052716 | 85 | 150 | 1.7 | 5.2 | 0.00 | 0.00 | 0.00 | 65 | 1011.2 |
| 20260906051718 | 85 | 151 | 1.7 | 5.2 | 0.00 | 0.00 | 0.00 | 65 | 1011.2 |
| 20260906050710 | 85 | 167 | 1.7 | 5.2 | 0.00 | 0.00 | 0.00 | 64 | 1011.3 |
| 20260906045711 | 86 | 147 | 0.9 | 4.3 | 0.00 | 0.00 | 0.00 | 64 | 1011.2 |
| 20260906045201 | 86 | 161 | 0.9 | 3.5 | 0.00 | 0.00 | 0.00 | 63 | 1011.1 |
| 20260906043711 | 86 | 176 | 1.7 | 5.2 | 0.00 | 0.00 | 0.00 | 63 | 1010.9 |
| 20260906042711 | 87 | 167 | 1.7 | 4.3 | 0.00 | 0.00 | 0.00 | 62 | 1010.9 |
| 20260906041712 | 87 | 147 | 1.7 | 5.2 | 0.00 | 0.00 | 0.00 | 62 | 1010.8 |
| 20260906040710 | 87 | 168 | 0.9 | 5.2 | 0.00 | 0.00 | 0.00 | 61 | 1010.9 |
| 20260906035710 | 87 | 152 | 0.9 | 4.3 | 0.00 | 0.00 | 0.00 | 60 | 1010.8 |
| 20260906034708 | 88 | 173 | 1.7 | 7.0 | 0.00 | 0.00 | 0.00 | 60 | 1010.9 |
| 20260906033710 | 88 | 138 | 0.9 | 6.1 | 0.00 | 0.00 | 0.00 | 59 | 1010.9 |
| 20260906032708 | 88 | 163 | 0.9 | 4.3 | 0.00 | 0.00 | 0.00 | 58 | 1010.9 |
| 20260906031708 | 89 | 115 | 0.9 | 4.3 | 0.00 | 0.00 | 0.00 | 58 | 1010.8 |
| 20260906030710 | 89 | 146 | 1.7 | 5.2 | 0.00 | 0.00 | 0.00 | 57 | 1010.8 |
| 20260906025708 | 89 | 142 | 1.7 | 6.1 | 0.00 | 0.00 | 0.00 | 56 | 1010.8 |
| 20260906024706 | 90 | 150 | 1.7 | 7.0 | 0.00 | 0.00 | 0.00 | 56 | 1010.7 |
| 20260906023705 | 90 | 112 | 1.7 | 6.1 | 0.00 | 0.00 | 0.00 | 55 | 1010.4 |
| 20260906022709 | 90 | 96 | 1.7 | 5.2 | 0.00 | 0.00 | 0.00 | 54 | 1010.3 |
| 20260906021709 | 91 | 97 | 2.6 | 7.0 | 0.00 | 0.00 | 0.00 | 53 | 1010.2 |
| 20260906021147 | 92 | 90 | 2.6 | 7.8 | 0.00 | 0.00 | 0.00 | 52 | 1010.0 |
| 20260906015702 | 93 | 80 | 2.6 | 7.0 | 0.00 | 0.00 | 0.00 | 50 | 1009.8 |
| 20260906014702 | 93 | 88 | 1.7 | 3.5 | 0.00 | 0.00 | 0.00 | 45 | 1009.5 |
| 20260906013700 | 93 | 78 | 0.9 | 3.5 | 0.00 | 0.00 | 0.00 | 45 | 1009.4 |
| 20260906012659 | 93 | 59 | 0.9 | 2.6 | 0.00 | 0.00 | 0.00 | 44 | 1009.2 |
| 20260906011700 | 94 | 82 | 0.9 | 2.6 | 0.00 | 0.00 | 0.00 | 44 | 1009.1 |
| 20260906011142 | 94 | 84 | 0.9 | 2.6 | 0.00 | 0.00 | 0.00 | 43 | 1009.1 |
| 20260906005659 | 95 | 82 | 1.7 | 4.3 | 0.00 | 0.00 | 0.00 | 42 | 1009.0 |
| 20260906005138 | 95 | 88 | 1.7 | 5.2 | 0.00 | 0.00 | 0.00 | 41 | 1009.0 |
| 20260906003700 | 96 | 74 | 1.7 | 7.0 | 0.00 | 0.00 | 0.00 | 41 | 1009.0 |
| 20260906002659 | 96 | 92 | 1.7 | 6.1 | 0.00 | 0.00 | 0.00 | 41 | 1009.0 |
| 20260906001659 | 96 | 85 | 1.7 | 5.2 | 0.00 | 0.00 | 0.00 | 41 | 1009.0 |
| 20260906000700 | 97 | 79 | 3.5 | 7.8 | 0.00 | 0.00 | 0.00 | 40 | 1008.9 |
| 20260906000146 | 97 | 82 | 1.7 | 6.1 | 0.00 | 0.00 | 0.00 | 40 | 1008.8 |
| 20260905234658 | 98 | 80 | 1.7 | 3.5 | 0.00 | 0.00 | 0.00 | 40 | 1008.8 |
| 20260905233700 | 98 | 153 | 2.6 | 7.8 | 0.00 | 0.00 | 0.00 | 40 | 1008.7 |
| 20260905232700 | 98 | 97 | 3.5 | 7.0 | 0.00 | 0.00 | 0.00 | 39 | 1008.8 |
| 20260905230659 | 98 | 98 | 1.7 | 6.1 | 0.00 | 0.00 | 0.00 | 39 | 1008.7 |
| 20260905225659 | 98 | 113 | 2.6 | 6.1 | 0.00 | 0.00 | 0.00 | 38 | 1008.7 |
| 20260905224658 | 98 | 82 | 1.7 | 5.2 | 0.00 | 0.00 | 0.00 | 38 | 1008.7 |